Wind_Speed
40 39 39 38 38 38 38 39 38 38 39 39 38 38 38 37 38 38 37 37 36 36 37 36 36 36 35 35 35 35 35 34 32 31 30 29 28 28 28 27 26 25 25
44 43 43 42 42 41 41 41 40 41 41 41 40 39 39 39 39 40 41 42 42 41 42 42 41 41 41 41 41 41 41 40 38 37 36 34 32 31 30 29 29 28 27
48 47 47 47 46 46 45 45 44 44 44 44 43 43 43 42 41 40 40 40 41 42 43 43 43 44 44 45 46 46 46 45 44 42 41 39 36 34 33 32 30 29 29
53 52 52 52 52 51 51 51 50 49 49 48 48 48 47 46 45 44 43 42 42 42 43 43 43 43 43 43 45 46 47 48 48 47 45 43 41 38 36 35 33 31 30
60 59 59 59 59 58 57 57 56 55 54 54 53 53 52 51 50 49 48 48 47 46 46 46 46 46 46 45 45 46 45 46 47 47 47 46 44 42 40 38 36 34 32
65 65 65 65 65 64 63 63 62 62 61 60 59 57 56 56 55 54 53 53 52 51 50 50 50 50 49 50 50 50 49 48 48 47 47 47 45 44 43 41 39 37 36
64 66 67 69 69 68 68 67 67 66 66 65 64 62 61 61 60 59 58 58 57 55 54 53 53 53 52 52 53 53 52 52 51 50 49 48 47 46 45 44 42 40 39
67 67 67 68 68 69 68 68 67 67 67 67 68 67 66 66 64 63 62 61 60 59 58 57 56 56 55 53 52 53 54 54 54 53 52 50 49 48 47 45 44 43 42
74 73 72 71 71 71 71 70 69 68 66 65 65 66 66 66 66 66 65 64 63 61 60 60 59 58 57 55 54 53 53 54 55 54 52 51 51 50 50 48 46 46 46
78 79 78 77 76 75 75 74 73 72 69 67 65 64 64 64 64 64 64 64 64 63 63 62 61 60 58 56 55 54 53 53 54 54 53 53 52 52 52 50 50 50 51
79 80 81 81 79 78 78 79 78 76 75 73 71 69 67 66 64 63 62 63 63 63 64 64 64 63 61 59 57 56 55 55 54 54 53 53 54 54 55 54 54 54 54
76 79 81 81 81 80 80 81 80 80 79 77 76 75 73 72 69 67 67 66 65 65 64 65 65 65 64 63 61 60 59 59 58 58 58 58 58 59 59 59 58 57 56
68 71 76 78 78 78 79 80 80 81 81 79 78 78 77 75 73 71 71 71 69 68 67 67 67 67 66 66 64 64 63 63 64 63 62 62 61 61 60 59 59 59 58
62 65 68 70 70 70 69 69 70 72 75 76 76 75 75 74 73 73 73 73 72 71 70 69 69 68 68 67 66 66 65 66 66 65 64 63 63 62 60 58 59 60 60
55 60 66 68 66 64 63 61 58 58 62 64 66 67 68 70 72 72 72 72 71 70 69 68 67 66 66 66 66 65 65 65 64 64 63 63 63 62 61 59 58 60 60
44 44 52 65 68 63 59 56 52 50 51 54 55 55 57 61 64 65 65 66 67 67 66 66 65 65 64 63 64 64 64 64 63 63 62 61 61 60 59 58 58 58 58
38 37 37 46 61 63 59 56 51 48 48 48 51 53 53 55 59 60 60 62 63 65 65 66 66 65 65 64 64 64 64 64 63 63 62 62 61 60 58 57 57 57 57
31 29 28 30 43 56 59 57 53 51 49 48 49 52 53 54 60 61 62 62 63 65 65 65 66 66 65 64 63 63 64 63 62 61 60 59 58 59 58 57 57 57 58
26 23 21 21 29 40 50 55 56 56 54 51 49 48 49 53 56 58 57 57 57 57 58 58 58 59 59 59 59 60 60 59 58 58 58 57 57 58 58 58 58 59 60
24 21 19 20 24 30 37 45 51 54 54 52 49 45 43 45 48 50 51 51 52 52 52 53 53 54 55 55 56 57 58 59 58 58 58 59 59 61 61 59 59 58 58
22 19 16 19 25 30 33 37 42 46 48 48 46 44 40 40 43 45 47 47 48 48 49 50 52 53 54 55 56 55 56 57 59 59 60 60 60 60 61 60 59 58 56
21 18 16 15 20 27 32 34 36 37 39 41 42 41 40 40 42 44 44 45 45 46 46 48 50 53 54 56 57 56 55 56 58 58 58 59 58 58 58 57 57 57 53
21 19 18 18 18 22 29 33 36 36 36 37 38 39 40 41 43 44 44 44 44 44 45 47 48 50 52 55 57 56 55 56 57 56 55 55 55 56 56 54 53 52 51
25 23 21 21 21 20 21 25 29 31 31 33 36 38 39 42 43 44 43 43 44 46 47 49 49 49 50 52 55 57 57 56 55 54 52 51 51 51 50 49 47 47 48
29 28 26 25 25 24 24 25 27 29 30 31 34 36 39 40 41 41 41 41 43 45 47 49 49 48 46 47 49 52 53 53 52 49 48 48 48 48 47 45 44 45 47
32 32 31 29 28 28 28 29 30 31 32 33 35 37 39 39 39 39 39 39 38 39 42 45 45 45 46 47 46 46 47 48 48 46 45 45 46 46 45 44 43 44 46
Wind_Direction
256 254 252 252 252 252 252 253 254 253 253 253 253 253 253 252 252 253 254 253 251 251 253 254 253 252 253 254 256 258 259 261 262 263 265 265 264 263 262 260 258 257 256
255 255 255 255 254 253 253 254 255 256 256 256 256 255 255 254 253 254 254 255 255 254 254 255 255 255 255 256 256 257 259 261 262 263 264 263 263 263 264 263 260 258 257
256 255 255 256 255 254 253 253 253 254 255 256 256 256 255 255 254 255 255 256 257 257 256 257 256 256 255 255 256 257 259 261 262 262 263 263 262 261 262 263 262 260 258
258 257 256 256 256 255 254 254 255 255 255 255 256 257 257 256 255 254 254 254 255 257 257 257 256 256 256 256 256 257 259 260 260 261 261 261 261 261 261 261 262 262 261
263 261 259 257 257 256 255 254 254 255 255 255 255 256 256 256 255 255 255 255 254 255 256 256 256 256 256 257 257 257 258 258 259 260 260 260 260 260 260 260 261 261 261
264 262 260 259 259 258 257 255 255 254 254 254 254 254 254 254 254 255 256 255 255 255 256 256 256 256 257 257 258 258 257 256 256 257 258 259 259 259 258 258 259 260 260
264 264 263 261 260 259 258 257 256 255 254 254 253 252 252 252 252 253 254 254 254 254 255 255 255 256 256 256 257 258 258 256 254 254 255 256 257 258 258 258 259 259 259
265 263 262 262 261 259 258 258 257 256 255 255 254 253 252 252 252 252 252 253 253 254 255 255 255 255 256 255 255 256 257 257 256 254 252 252 253 255 256 258 259 260 259
266 264 263 262 260 259 258 257 256 255 254 254 254 253 252 252 252 251 251 251 252 252 253 254 254 254 255 255 254 255 256 257 256 256 254 252 252 253 255 257 260 262 261
265 264 263 262 261 259 259 258 257 256 254 253 252 251 251 250 249 249 249 249 249 250 250 251 252 252 252 253 253 254 254 255 255 255 255 254 253 254 254 255 258 261 261
265 263 263 262 260 259 258 257 256 255 254 252 251 250 250 249 248 248 247 247 247 248 248 249 250 250 250 250 250 251 251 251 252 252 253 254 254 255 255 257 259 259 259
265 262 259 258 258 257 256 255 255 254 253 253 252 251 249 249 248 248 248 247 247 247 247 248 249 250 250 250 249 248 248 249 249 250 251 252 254 255 255 257 259 259 257
264 260 257 254 253 254 254 253 252 252 252 251 250 250 249 248 247 247 248 248 248 247 247 247 248 249 250 250 249 248 248 249 249 251 252 253 254 254 255 256 257 257 256
265 260 256 252 247 246 247 250 250 250 250 250 250 249 248 246 245 245 246 246 246 246 246 247 248 249 249 249 248 249 249 250 251 252 253 253 253 255 256 255 255 256 255
275 264 254 249 246 243 241 243 245 248 250 248 247 246 245 244 243 244 244 244 244 244 245 246 247 248 249 249 249 249 248 249 250 251 252 253 254 256 256 256 255 255 255
291 279 260 245 241 240 240 241 243 247 247 245 242 240 241 240 242 243 243 244 244 245 245 246 248 248 249 250 250 249 248 247 247 248 250 252 253 255 255 255 254 253 253
295 285 274 251 236 232 234 236 239 244 245 244 240 237 239 242 242 243 244 245 245 246 246 246 247 247 247 247 247 247 248 247 247 248 249 250 251 253 253 252 251 251 252
303 293 279 257 235 228 228 230 233 237 239 240 238 237 237 239 238 239 242 245 247 247 247 247 248 248 249 248 248 248 248 248 248 248 249 248 248 247 247 248 248 250 253
308 297 282 257 235 229 229 231 234 236 237 236 235 237 239 240 237 239 244 246 247 247 247 246 246 248 249 249 247 247 246 246 246 247 246 244 243 242 244 245 247 251 254
313 300 281 256 235 230 233 235 237 237 238 236 234 236 238 238 238 241 242 243 244 243 242 241 243 245 247 247 247 247 246 245 245 245 245 243 242 242 243 245 247 249 252
312 305 285 259 242 235 235 237 239 239 239 235 234 234 233 236 236 236 235 237 239 239 239 241 244 246 248 249 249 249 247 246 245 244 244 244 243 244 244 244 246 247 250
304 300 283 266 247 240 238 238 237 234 231 231 232 233 232 232 232 232 233 235 238 240 242 244 246 247 248 248 247 246 246 245 244 244 245 244 242 243 244 245 246 246 245
288 289 281 271 262 249 241 238 235 235 233 231 231 231 229 230 231 232 234 238 242 246 247 248 248 248 246 244 242 242 242 242 242 241 243 244 242 242 244 245 245 242 239
276 274 272 269 268 261 248 238 235 232 230 229 227 226 227 229 231 234 237 241 246 248 249 248 247 247 245 242 241 241 240 241 241 241 241 242 240 240 241 242 241 237 235
270 265 265 264 263 260 251 242 236 233 232 230 229 228 228 231 233 237 240 244 247 248 247 245 244 245 242 240 240 239 237 237 237 237 238 238 237 237 239 239 237 234 233
270 262 259 258 257 255 251 246 241 238 236 235 235 234 234 234 235 238 240 243 246 247 245 242 241 240 240 242 239 234 230 230 231 233 235 235 234 235 238 238 237 235 234
Height
5767 5768 5768 5769 5769 5770 5771 5771 5773 5775 5776 5778 5780 5782 5784 5786 5788 5789 5791 5793 5796 5797 5799 5801 5802 5805 5806 5808 5809 5811 5813 5814 5816 5818 5819 5821 5822 5824 5826 5828 5830 5832 5834
5756 5757 5757 5758 5759 5760 5761 5762 5763 5765 5766 5768 5770 5772 5774 5776 5778 5780 5782 5784 5786 5788 5790 5792 5794 5796 5799 5800 5802 5803 5805 5806 5808 5810 5811 5813 5815 5817 5819 5821 5823 5825 5828
5744 5744 5745 5745 5746 5748 5750 5751 5752 5754 5756 5757 5759 5761 5763 5765 5768 5770 5772 5774 5776 5778 5780 5783 5785 5786 5789 5791 5793 5794 5796 5798 5800 5801 5803 5805 5807 5809 5811 5813 5816 5818 5821
5731 5731 5731 5732 5732 5734 5736 5738 5739 5741 5744 5746 5748 5749 5751 5754 5757 5759 5762 5764 5766 5768 5770 5772 5774 5776 5778 5780 5782 5784 5786 5788 5789 5792 5794 5797 5799 5802 5804 5806 5808 5810 5813
5715 5715 5716 5717 5718 5720 5721 5723 5725 5727 5730 5732 5734 5737 5739 5741 5744 5747 5750 5753 5755 5758 5760 5762 5764 5766 5768 5770 5772 5774 5776 5777 5779 5782 5784 5787 5790 5792 5795 5798 5800 5802 5805
5697 5697 5698 5700 5701 5703 5705 5707 5709 5711 5714 5716 5719 5722 5725 5728 5730 5733 5736 5739 5742 5745 5748 5750 5752 5755 5757 5759 5760 5762 5765 5767 5770 5772 5775 5777 5780 5782 5785 5788 5791 5793 5796
5679 5679 5680 5681 5683 5684 5686 5688 5691 5693 5696 5699 5702 5705 5709 5713 5716 5718 5721 5724 5727 5731 5734 5737 5740 5742 5745 5748 5749 5751 5753 5755 5759 5762 5764 5767 5770 5772 5775 5777 5780 5784 5787
5660 5661 5662 5662 5663 5665 5667 5669 5671 5674 5677 5680 5684 5687 5692 5696 5699 5703 5706 5709 5712 5716 5719 5723 5726 5729 5732 5735 5737 5739 5741 5743 5746 5749 5753 5757 5759 5762 5764 5767 5770 5773 5777
5639 5640 5642 5643 5643 5645 5647 5649 5651 5655 5658 5661 5665 5668 5673 5677 5681 5685 5689 5692 5696 5700 5704 5707 5711 5714 5717 5720 5723 5726 5728 5730 5733 5736 5741 5745 5748 5751 5753 5756 5760 5762 5765
5616 5616 5618 5620 5622 5624 5626 5629 5631 5635 5639 5643 5646 5649 5654 5658 5663 5667 5671 5675 5680 5684 5688 5691 5695 5699 5703 5706 5709 5712 5715 5717 5720 5724 5728 5732 5736 5740 5743 5746 5749 5752 5754
5590 5590 5592 5594 5598 5601 5604 5606 5609 5613 5617 5621 5626 5630 5635 5639 5644 5648 5653 5657 5662 5666 5671 5675 5679 5683 5687 5691 5694 5698 5701 5704 5708 5711 5715 5719 5723 5727 5731 5734 5738 5740 5743
5562 5562 5564 5567 5571 5575 5580 5583 5586 5589 5594 5599 5604 5609 5615 5620 5625 5629 5634 5639 5644 5649 5654 5658 5662 5667 5671 5675 5678 5682 5686 5690 5694 5698 5702 5706 5709 5713 5717 5721 5724 5728 5731
5533 5534 5535 5540 5545 5549 5553 5558 5562 5565 5569 5575 5580 5586 5592 5598 5603 5609 5614 5619 5624 5630 5636 5640 5645 5649 5653 5658 5662 5666 5670 5674 5678 5682 5687 5691 5695 5698 5702 5706 5710 5714 5718
5508 5508 5508 5513 5520 5526 5531 5534 5538 5542 5546 5552 5558 5564 5569 5575 5581 5587 5594 5600 5605 5611 5617 5622 5627 5631 5635 5640 5645 5649 5654 5658 5662 5666 5671 5675 5679 5683 5687 5691 5695 5700 5703
5483 5483 5485 5489 5497 5505 5511 5516 5519 5522 5526 5531 5538 5543 5548 5553 5560 5567 5574 5580 5587 5593 5600 5605 5610 5614 5618 5622 5628 5633 5637 5641 5646 5650 5654 5659 5663 5668 5672 5677 5681 5685 5689
5463 5460 5459 5464 5475 5485 5494 5499 5503 5507 5511 5516 5521 5527 5532 5537 5543 5550 5557 5563 5569 5576 5583 5588 5593 5598 5603 5607 5611 5616 5621 5625 5630 5634 5639 5643 5648 5653 5657 5662 5666 5670 5674
5450 5445 5442 5442 5452 5466 5476 5484 5489 5493 5497 5502 5507 5513 5519 5525 5531 5537 5542 5548 5554 5559 5566 5571 5575 5580 5586 5591 5595 5599 5604 5609 5614 5619 5623 5628 5633 5638 5643 5647 5651 5656 5659
5440 5435 5431 5430 5436 5447 5458 5467 5474 5478 5483 5489 5494 5499 5504 5510 5517 5523 5527 5533 5538 5544 5550 5555 5558 5562 5568 5574 5579 5584 5588 5593 5598 5603 5607 5612 5618 5623 5628 5632 5636 5640 5644
5434 5429 5426 5425 5428 5435 5444 5451 5457 5463 5470 5476 5481 5486 5490 5495 5501 5507 5512 5517 5523 5528 5533 5538 5542 5545 5551 5557 5563 5568 5573 5578 5582 5587 5592 5596 5602 5607 5612 5617 5621 5625 5628
5430 5426 5423 5422 5424 5429 5434 5439 5444 5451 5456 5462 5468 5473 5477 5482 5487 5493 5499 5504 5509 5514 5519 5524 5527 5531 5537 5542 5547 5552 5557 5562 5567 5572 5576 5581 5587 5592 5597 5602 5606 5609 5613
5427 5422 5419 5419 5421 5423 5426 5430 5434 5439 5445 5451 5457 5461 5465 5469 5475 5481 5486 5491 5496 5501 5505 5509 5514 5518 5522 5527 5532 5537 5541 5546 5550 5556 5560 5566 5572 5577 5581 5585 5590 5595 5600
5422 5419 5416 5415 5416 5417 5419 5421 5425 5429 5434 5439 5444 5448 5453 5458 5464 5469 5475 5480 5484 5488 5492 5495 5499 5503 5507 5512 5516 5521 5526 5530 5536 5542 5545 5550 5557 5561 5565 5570 5576 5581 5587
5416 5414 5411 5411 5410 5410 5411 5413 5416 5420 5424 5428 5433 5438 5443 5448 5453 5458 5463 5468 5471 5475 5478 5482 5484 5487 5492 5496 5501 5507 5511 5515 5521 5527 5531 5535 5542 5547 5552 5557 5563 5568 5574
5408 5406 5405 5404 5404 5404 5404 5406 5408 5411 5414 5418 5423 5427 5432 5437 5442 5447 5451 5455 5459 5462 5465 5468 5471 5474 5477 5481 5486 5491 5495 5501 5507 5512 5518 5523 5529 5534 5539 5545 5550 5555 5561
5398 5397 5397 5396 5396 5396 5397 5399 5400 5403 5406 5409 5413 5417 5421 5426 5431 5435 5440 5444 5447 5449 5451 5453 5457 5460 5463 5467 5472 5476 5481 5487 5493 5499 5505 5510 5516 5522 5527 5533 5538 5543 5549
5386 5386 5386 5386 5386 5386 5388 5390 5391 5393 5396 5399 5403 5407 5411 5415 5419 5423 5428 5432 5434 5436 5438 5440 5443 5446 5451 5455 5459 5463 5469 5474 5480 5487 5493 5499 5505 5511 5516 5522 5526 5532 5537